This is the latest recevied weather packets stored in our database for station/object DL1GHN-6. If no packets are shown the sender has not sent any weather packets the latest 10 day(s).
| Time | Temp. | Humidity | Pressure | Rain* | Wind** | Luminosity | Snow |
|---|---|---|---|---|---|---|---|
| 1777738975 | 26.67° C | 33% | 1015.5 hPa | 0 mm | - | 53 W/m² | - |
| 1777738675 | 27.22° C | 34% | 1015.6 hPa | 0 mm | - | 67 W/m² | - |
| 1777738374 | 27.78° C | 35% | 1015.6 hPa | 0 mm | - | 258 W/m² | - |
| 1777738075 | 27.78° C | 35% | 1015.7 hPa | 0 mm | - | 199 W/m² | - |
| 1777737773 | 27.78° C | 35% | 1015.8 hPa | 0 mm | - | 283 W/m² | - |
| 1777737473 | 27.22° C | 34% | 1015.8 hPa | 0 mm | - | 295 W/m² | - |
| 1777737174 | 27.22° C | 36% | 1015.9 hPa | 0 mm | - | 62 W/m² | - |
| 1777736874 | 27.22° C | 34% | 1015.9 hPa | 0 mm | - | 58 W/m² | - |
| 1777736575 | 27.78° C | 36% | 1015.9 hPa | 0 mm | - | 387 W/m² | - |
| 1777736273 | 27.78° C | 37% | 1015.9 hPa | 0 mm | - | 401 W/m² | - |
| 1777735975 | 28.33° C | 33% | 1016 hPa | 0 mm | - | 415 W/m² | - |
| 1777735675 | 28.33° C | 34% | 1016.1 hPa | 0 mm | - | 427 W/m² | - |
| 1777735374 | 28.33° C | 35% | 1016.1 hPa | 0 mm | - | 452 W/m² | - |
| 1777735075 | 28.33° C | 34% | 1016.2 hPa | 0 mm | - | 464 W/m² | - |
| 1777734774 | 28.33° C | 33% | 1016.3 hPa | 0 mm | - | 468 W/m² | - |
| 1777734475 | 28.33° C | 32% | 1016.3 hPa | 0 mm | - | 485 W/m² | - |
| 1777734174 | 28.33° C | 34% | 1016.4 hPa | 0 mm | - | 503 W/m² | - |
| 1777733873 | 27.78° C | 34% | 1016.5 hPa | 0 mm | - | 508 W/m² | - |
| 1777733574 | 28.33° C | 33% | 1016.6 hPa | 0 mm | - | 513 W/m² | - |
| 1777733273 | 28.33° C | 34% | 1016.7 hPa | 0 mm | - | 538 W/m² | - |
| 1777732974 | 28.33° C | 35% | 1016.8 hPa | 0 mm | - | 554 W/m² | - |
| 1777732674 | 27.78° C | 35% | 1016.8 hPa | 0 mm | - | 561 W/m² | - |
| 1777732374 | 27.78° C | 34% | 1016.9 hPa | 0 mm | - | 570 W/m² | - |
| 1777732074 | 28.33° C | 32% | 1016.9 hPa | 0 mm | - | 584 W/m² | - |
| 1777731775 | 28.33° C | 35% | 1017 hPa | 0 mm | - | 584 W/m² | - |
* Rain latest hour (hover to see other rain measurements)
** Current wind speed in m/s (hover to see current wind gust speed)